Temperatur und Luftfeuchte

Temperatur und Luftfeuchte

Die letzten 100 Messwerte

Nummer Datum und Zeit Sensor ID Temperatur in Celsius gef├╝hlte Temperatur Luftfeuchte in %
51094 2021-10-23 17:15:51 Terrasse 15.30 15.49 99.90
51093 2021-10-23 16:48:07 Terrasse 21.90 22.75 99.90
51092 2021-10-23 16:19:34 Terrasse 16.20 13.90 1.00
51091 2021-10-23 15:51:14 Terrasse 15.50 13.13 1.00
51090 2021-10-23 15:22:51 Terrasse 14.20 14.28 99.90
51089 2021-10-23 14:54:30 Terrasse 13.40 11.82 39.30
51088 2021-10-23 14:26:06 Terrasse 11.40 11.20 99.90
51087 2021-10-23 13:57:47 Terrasse 10.80 10.54 99.90
51086 2021-10-23 13:29:31 Terrasse 10.40 7.52 1.00
51085 2021-10-23 13:01:16 Terrasse 10.40 7.52 1.00
51084 2021-10-23 12:33:01 Terrasse 10.40 7.52 1.00
51083 2021-10-23 12:04:45 Terrasse 10.00 9.66 99.90
51082 2021-10-23 11:36:30 Terrasse 9.70 9.33 99.90
51081 2021-10-23 11:08:15 Terrasse 9.40 9.00 99.90
51080 2021-10-23 10:39:57 Terrasse 8.80 5.76 1.00
51079 2021-10-23 10:11:39 Terrasse 8.20 5.10 1.00
51078 2021-10-23 09:43:23 Terrasse 7.70 4.55 1.00
51077 2021-10-23 09:15:08 Terrasse 7.40 4.22 1.00
51076 2021-10-23 08:46:57 Terrasse 7.10 3.89 1.00
51075 2021-10-23 08:18:41 Terrasse 6.90 3.67 1.00
51074 2021-10-23 07:50:29 Terrasse 6.80 3.56 1.00
51073 2021-10-23 07:22:16 Terrasse 7.00 3.78 1.00
51072 2021-10-23 06:54:02 Terrasse 7.10 3.89 1.00
51071 2021-10-23 06:25:48 Terrasse 7.10 3.89 1.00
51070 2021-10-23 05:57:34 Terrasse 7.00 3.78 1.00
51069 2021-10-23 05:29:21 Terrasse 7.10 3.89 1.00
51068 2021-10-23 05:01:08 Terrasse 7.10 3.89 1.00
51067 2021-10-23 04:32:54 Terrasse 7.10 3.89 1.00
51066 2021-10-23 04:04:41 Terrasse 7.00 3.78 1.00
51065 2021-10-23 03:36:29 Terrasse 7.20 6.58 99.90
51064 2021-10-23 03:08:17 Terrasse 7.30 4.11 1.00
51063 2021-10-23 02:40:05 Terrasse 7.70 7.13 99.90
51062 2021-10-23 02:11:53 Terrasse 8.20 5.10 1.00
51061 2021-10-23 01:43:38 Terrasse 8.20 5.10 1.00
51060 2021-10-23 01:15:24 Terrasse 8.20 7.68 99.90
51059 2021-10-23 00:47:10 Terrasse 8.50 8.01 99.90
51058 2021-10-23 00:18:57 Terrasse 8.60 8.12 99.90
51057 2021-10-22 23:50:43 Terrasse 8.70 8.23 99.90
51056 2021-10-22 23:22:30 Terrasse 8.90 8.45 99.90
51055 2021-10-22 22:54:18 Terrasse 9.10 6.99 35.30
51054 2021-10-22 22:26:05 Terrasse 9.30 8.89 99.90
51053 2021-10-22 21:57:52 Terrasse 9.30 6.31 1.00
51052 2021-10-22 21:29:40 Terrasse 9.40 6.42 1.00
51051 2021-10-22 21:01:26 Terrasse 9.40 6.42 1.00
51050 2021-10-22 20:33:12 Terrasse 9.50 9.11 99.90
51049 2021-10-22 20:04:59 Terrasse 9.60 6.64 1.00
51048 2021-10-22 19:36:46 Terrasse 9.70 6.75 1.00
51047 2021-10-22 19:08:41 Terrasse 9.90 8.61 63.60
51046 2021-10-22 18:40:27 Terrasse 10.10 7.19 1.00
51045 2021-10-22 18:12:16 Terrasse 10.50 7.63 1.00
51044 2021-10-22 17:44:04 Terrasse 11.00 8.18 1.00
51043 2021-10-22 17:15:57 Terrasse 11.90 9.17 1.00
51042 2021-10-22 16:48:12 Terrasse 16.90 14.67 1.00
51041 2021-10-22 16:19:41 Terrasse 12.80 12.74 99.90
51040 2021-10-22 15:51:23 Terrasse 12.90 10.27 1.00
51039 2021-10-22 15:23:06 Terrasse 11.10 8.29 1.00
51038 2021-10-22 14:54:51 Terrasse 10.70 10.43 99.90
51037 2021-10-22 14:26:41 Terrasse 11.30 8.51 1.00
51036 2021-10-22 13:58:37 Terrasse 12.60 9.94 1.00
51035 2021-10-22 13:30:24 Terrasse 13.10 10.49 1.00
51034 2021-10-22 13:02:04 Terrasse 11.80 9.06 1.00
51033 2021-10-22 12:33:46 Terrasse 11.10 10.87 99.90
51032 2021-10-22 12:05:24 Terrasse 9.70 9.33 99.90
51031 2021-10-22 11:37:04 Terrasse 8.40 5.32 1.00
51030 2021-10-22 11:08:45 Terrasse 7.60 4.44 1.00
51029 2021-10-22 10:40:28 Terrasse 6.90 6.25 99.90
51028 2021-10-22 10:12:12 Terrasse 6.30 5.59 99.90
51027 2021-10-22 09:43:53 Terrasse 5.60 4.82 99.90
51026 2021-10-22 09:15:39 Terrasse 5.20 4.38 99.90
51025 2021-10-22 08:47:24 Terrasse 5.10 4.27 99.90
51024 2021-10-22 08:19:12 Terrasse 5.20 4.38 99.90
51023 2021-10-22 07:51:00 Terrasse 5.30 4.49 99.90
51022 2021-10-22 07:22:48 Terrasse 5.40 4.60 99.90
51021 2021-10-22 06:54:36 Terrasse 5.40 4.60 99.90
51020 2021-10-22 06:26:24 Terrasse 5.60 4.82 99.90
51019 2021-10-22 05:58:12 Terrasse 5.70 4.93 99.90
51018 2021-10-22 05:30:00 Terrasse 5.60 4.82 99.90
51017 2021-10-22 05:01:50 Terrasse 5.80 5.04 99.90
51016 2021-10-22 04:33:37 Terrasse 6.10 5.37 99.90
51015 2021-10-22 04:05:25 Terrasse 6.40 5.70 99.90
51014 2021-10-22 03:37:13 Terrasse 6.60 5.92 99.90
51013 2021-10-22 03:09:00 Terrasse 6.70 6.03 99.90
51012 2021-10-22 02:40:48 Terrasse 6.80 6.14 99.90
51011 2021-10-22 02:12:35 Terrasse 6.70 6.03 99.90
51010 2021-10-22 01:44:23 Terrasse 7.00 6.36 99.90
51009 2021-10-22 01:16:13 Terrasse 7.40 6.80 99.90
51008 2021-10-22 00:48:02 Terrasse 7.90 7.35 99.90
51007 2021-10-22 00:19:49 Terrasse 8.30 7.79 99.90
51006 2021-10-21 23:51:37 Terrasse 8.50 8.01 99.90
51005 2021-10-21 23:23:24 Terrasse 8.60 8.12 99.90
51004 2021-10-21 22:55:13 Terrasse 9.00 8.56 99.90
51003 2021-10-21 22:27:00 Terrasse 9.20 8.78 99.90
51002 2021-10-21 21:58:50 Terrasse 9.30 8.89 99.90
51001 2021-10-21 21:30:36 Terrasse 9.40 9.00 99.90
51000 2021-10-21 21:02:22 Terrasse 9.50 9.11 99.90
50999 2021-10-21 20:34:07 Terrasse 9.50 9.11 99.90
50998 2021-10-21 20:05:55 Terrasse 9.70 7.03 11.60
50997 2021-10-21 19:37:43 Terrasse 10.10 7.19 1.00
50996 2021-10-21 19:09:33 Terrasse 10.40 7.52 1.00
50995 2021-10-21 18:41:24 Terrasse 11.00 10.76 99.90